STARLINK-34137, 63953

Orbit data source: Space-Track

STARLINK-34137, 63953 is a payload satellite owned by SpaceX/Seattle (US) in LEO that was launched on Tue, 13 May 2025 UTC via an FALCON 9 launch vehicle from the Air Force Eastern Test Range (AFETR). Payload-class satellites include a variety of spacecraft equipped with specific instruments for various scientific and technological missions. These include communications satellites like Starlink; space stations such as the ISS; scientific satellites like the Hubble; Earth observation satellites from companies like Planet Labs, Umbra, and HawkEye 360; GPS; miniature CubeSats for education and research; and military/defense satellites.

Loading next visibility...
Identifier
63953, 2025-099B
Orbit
LEO
Country
Flag of USUS
Related business
Manufacturer
SpaceX/Seattle
Mission
Operational Commercial Communications
Bus & Motor
STARLINK V2MO, Unknown motor
Mass
575 kg wet, ~530 kg dry
Launch date (UTC)
2025-05-13 (11 months ago)
Launch vehicle
FALCON 9
Launch site
Air Force Eastern Test Range (AFETR)
Object type
Payload
Rocket body
Debris
Shape & HBR
Box + 2 Pan, 17.7 m
Radar Cross Section
36.964 m², Large (>1 m²)

Expand to show TLE details & history
Last TLE update: 15 hours ago

TLE from 15 hours ago
0 STARLINK-34137
1 63953U 25099B   26093.84989296  .00061321  00000-0  22227-2 0  9996
2 63953  43.0014  34.1835 0001557 291.0375  69.0310 15.27530602 51184
Epoch: 2026-04-03T20:23Z
TLE epoch observation values (Epoch: 2026-04-03T20:23:50.751Z)
Latitude
-0.00003°
Longitude
-103.95611°
Altitude
482.59 km
Speed
7.626 km/s
True Right ascension
02h 16m 44s
True Declination
0° 00' 00"
Sunlit
Object was in daylight at epoch
Visualization orbit readout
Latitude
Unknown
Longitude
Unknown
Altitude
Unknown
Speed
Unknown
Apparent Right ascension
Unknown
Apparent Declination
Unknown
Sunlit
N/A
Visualization observer readout
Local Sidereal Time
17:32:47
Azimuth
Unknown
Elevation
Unknown
Doppler factor
Unknown
Orbital elements
Apogee altitude
486.211 km
Perigee altitude
484.073 km
Semi-major axis
6,863.279 km
Eccentricity
0.00016
Inclination
43.0014°
RAAN
34.1835°
Arg. of periapsis
291.0375°
True anomaly
69.04766°
Mean anomaly
69.031°
Eccentric anomaly
69.03933°
Mean motion
3.81721 °/min
Orbital period
94.31 mins
BSTAR
0.0022227
Loading maneuver chart data...
Computing Atmospheric mass density...
Loading historical data...
Loading historical data...
Loading historical data...
Loading historical data...
Loading historical data...
Loading historical data...
Loading historical data...

Documentation

Showing up to 5 results
|